Temperature
24 24 24 23 23 22 22 22 21 21 21 20 20 20 20 19 19 19 19 19 19 19 19 18 18 18 18 18 18 18 18 18 18 18 18 18 18 18 18 18 18 18 18
24 24 24 23 23 22 22 22 21 21 21 21 20 20 20 20 19 19 19 19 19 19 19 18 18 18 18 18 18 18 18 18 18 18 18 18 18 19 19 19 18 18 18
24 24 23 23 23 23 22 22 21 21 21 20 20 20 19 19 19 19 19 19 19 19 19 18 18 18 18 18 18 18 18 18 18 18 18 18 18 18 19 19 19 19 18
24 24 24 23 23 23 23 22 22 21 21 20 20 20 20 19 19 19 19 19 19 18 18 18 18 18 18 18 18 18 18 18 18 18 18 18 18 18 18 18 18 18 18
24 24 24 24 24 23 23 22 22 21 21 20 20 20 20 19 19 19 19 19 18 18 18 18 18 18 18 18 18 18 18 18 18 18 18 18 18 18 18 18 18 18 18
24 24 24 24 23 23 22 22 22 21 21 20 20 20 20 19 19 19 19 19 18 18 18 18 18 18 18 18 18 18 18 18 17 17 17 17 17 18 17 17 17 18 18
24 24 24 24 23 23 22 22 22 21 21 20 20 20 20 19 19 19 19 18 18 18 18 18 18 18 18 18 18 17 17 17 17 18 17 17 17 17 17 17 17 17 17
25 24 24 24 24 23 22 22 22 21 21 20 20 20 19 19 19 19 18 18 18 18 18 18 18 18 18 18 17 17 17 17 17 17 17 17 17 17 17 17 17 16 16
24 24 24 24 24 23 23 22 22 21 21 20 20 20 19 19 19 19 18 18 18 18 18 17 17 18 18 17 17 17 17 17 17 17 17 17 17 17 17 17 17 16 16
24 24 24 23 23 23 22 22 21 21 21 20 20 19 19 19 19 18 18 18 18 18 17 17 17 17 17 17 17 17 17 17 16 16 16 17 17 17 17 16 16 16 16
24 24 24 23 23 22 22 22 21 21 20 20 20 19 19 19 18 18 18 18 18 17 17 17 17 17 17 17 17 17 16 16 16 16 16 16 16 16 16 16 16 16 16
24 24 24 23 22 22 21 21 21 20 20 20 19 19 19 18 18 18 18 18 17 17 17 17 17 17 17 16 16 16 16 16 16 16 16 16 16 16 16 16 16 15 15
23 23 23 23 22 22 21 21 20 20 20 19 19 19 18 18 18 18 17 17 17 17 17 17 17 16 16 16 16 16 16 16 16 15 16 16 16 15 15 15 15 15 15
23 23 23 22 22 21 21 20 20 20 19 19 19 18 18 18 18 17 17 17 17 17 17 16 16 16 16 16 16 16 16 15 15 15 15 15 15 15 15 15 15 15 14
23 23 22 22 21 21 21 20 20 19 19 19 18 18 18 18 17 17 17 17 17 16 16 16 16 16 16 16 15 15 15 15 15 15 14 14 14 14 14 14 14 14 14
22 22 22 22 21 21 20 20 19 19 19 18 18 18 18 17 17 17 17 16 16 16 16 16 15 15 15 15 15 15 15 15 15 14 14 14 14 14 14 13 13 13 13
22 22 22 21 21 20 20 20 19 19 19 18 18 18 17 17 17 16 16 16 16 16 15 15 15 15 15 15 15 15 14 14 14 14 14 13 13 13 13 13 13 13 12
22 22 21 21 20 20 20 20 19 19 18 18 18 17 17 16 16 16 16 16 15 15 15 15 15 14 14 14 14 14 14 14 13 13 13 13 13 12 12 12 12 12 12
22 22 21 21 20 20 20 19 19 18 18 18 17 17 16 16 16 16 15 15 15 15 14 14 14 14 14 13 13 13 13 13 13 13 12 12 12 12 12 12 12 12 11
22 21 21 20 20 20 19 19 18 18 18 17 17 16 16 16 15 15 15 15 15 14 14 14 13 13 13 13 13 13 13 13 12 12 12 11 11 11 11 11 11 11 11
21 21 20 20 20 19 19 19 18 17 17 16 16 16 16 15 15 15 14 14 14 14 14 13 13 13 13 13 13 12 12 12 12 12 11 11 11 11 11 11 11 10 10
20 20 20 19 19 19 18 18 18 17 16 16 16 15 15 15 15 14 14 14 14 13 13 13 13 13 12 12 12 12 12 12 12 11 11 11 10 10 10 10 10 10 10
20 19 19 18 18 18 18 17 17 16 16 15 15 15 15 14 14 14 14 13 13 13 13 13 13 12 12 12 12 11 11 11 11 11 11 10 10 10 10 10 10 10 10
19 18 18 18 17 17 17 17 16 16 15 15 15 14 14 14 14 13 13 13 13 13 13 13 12 12 12 11 11 11 11 11 11 10 10 10 10 10 9 9 9 9 9
18 18 17 17 16 16 16 16 16 15 15 15 14 14 14 14 13 13 13 13 13 13 13 12 12 12 12 11 11 11 11 10 10 10 10 10 9 9 9 9 9 9 9
17 17 17 16 16 15 15 15 15 15 15 14 14 14 13 13 13 13 13 12 12 12 12 12 12 12 11 11 11 10 10 10 10 10 10 9 9 9 9 9 8 8 8
Wind_Speed
11 12 13 13 12 10 10 10 9 8 6 4 3 2 2 2 2 3 7 8 8 9 7 4 4 4 4 5 5 3 3 3 2 0 2 3 4 5 6 6 6 9 13
9 10 12 13 13 12 10 9 10 9 7 5 4 3 3 2 3 2 3 5 6 7 7 6 5 5 5 5 5 4 3 3 2 3 1 2 4 3 5 4 6 6 6
15 13 13 13 12 12 12 10 9 8 7 6 4 2 1 1 1 1 1 3 5 6 5 6 6 5 5 5 6 5 5 4 3 3 4 3 4 3 3 3 3 4 3
12 12 12 12 13 12 11 10 9 8 7 7 5 5 4 4 4 3 2 3 4 5 6 6 6 6 5 6 6 6 5 4 4 2 3 4 4 3 2 3 2 2 3
14 14 13 12 11 11 10 8 8 7 7 7 7 6 4 4 2 2 2 3 3 4 5 5 5 5 5 5 5 4 5 4 5 4 3 3 2 3 3 4 3 2 2
13 13 11 9 8 8 8 8 7 6 7 7 6 6 6 4 3 2 2 3 3 3 4 4 4 4 4 5 5 5 5 5 5 4 4 3 3 4 4 4 4 3 3
12 12 11 11 10 10 9 8 9 7 6 6 6 6 6 5 4 4 3 3 2 2 4 4 3 4 4 4 4 4 5 4 4 5 4 4 4 3 3 4 3 3 2
11 12 12 12 11 12 10 9 9 7 7 6 6 5 5 4 3 3 3 3 2 2 2 3 3 3 3 4 4 3 4 3 4 4 3 3 3 3 3 3 3 2 2
11 12 10 9 9 9 9 9 9 7 7 7 6 5 5 4 3 3 2 1 1 1 1 2 2 2 2 2 2 2 3 2 2 2 3 3 2 2 3 3 3 3 3
11 11 10 9 8 8 8 7 7 7 5 5 5 4 4 4 3 2 2 1 0 1 1 2 2 2 1 1 1 1 0 1 0 1 1 2 2 1 1 1 2 2 3
11 11 10 10 9 8 8 7 7 6 5 5 4 4 3 2 2 2 1 1 1 1 2 2 3 3 3 2 2 2 2 1 1 1 0 1 1 1 1 0 0 1 2
10 10 10 9 8 8 7 7 6 6 5 5 4 4 3 3 3 2 2 2 2 2 2 2 3 3 3 3 4 3 3 3 2 2 2 2 1 2 1 1 1 0 1
10 10 9 8 8 8 7 6 6 5 5 5 5 5 4 4 4 3 3 2 2 2 3 3 3 3 3 4 3 4 4 5 5 4 4 3 4 3 3 2 2 1 2
11 10 9 8 7 7 7 6 6 6 6 6 6 5 4 4 4 4 3 3 3 3 3 3 3 4 4 4 4 6 6 6 6 5 5 5 5 4 4 4 3 3 3
11 11 9 8 8 7 7 7 7 6 6 7 6 5 5 5 5 4 4 4 4 4 4 5 5 5 5 5 5 6 7 6 6 6 6 7 8 9 7 5 4 4 4
11 11 10 10 9 8 8 8 7 6 7 7 6 6 6 6 5 5 5 5 5 5 6 5 6 6 6 8 10 8 7 6 6 6 6 7 8 10 12 12 11 8 5
11 10 10 10 9 9 9 8 8 7 7 7 7 6 6 6 5 6 6 6 5 6 7 7 7 7 8 11 11 12 8 7 6 6 6 6 7 8 7 9 11 11 11
10 9 9 9 8 8 8 8 8 8 8 7 6 6 6 6 6 6 7 6 6 7 7 7 7 8 8 11 12 12 9 8 7 7 6 6 6 7 7 8 8 8 8
9 8 8 9 9 9 9 10 8 7 8 7 6 6 7 7 7 7 6 6 7 7 7 6 7 8 7 9 10 9 7 7 7 8 8 7 7 9 9 8 7 7 6
8 8 9 9 9 9 9 10 9 8 8 7 6 6 7 7 7 7 6 6 6 7 6 7 7 7 6 9 10 9 5 6 6 6 7 10 9 10 10 7 6 6 4
9 9 10 9 8 8 10 10 9 8 7 8 7 7 6 6 7 6 6 6 6 7 7 7 6 6 6 7 9 9 5 5 6 5 5 5 10 11 10 8 6 5 4
9 9 9 8 7 8 9 9 8 7 8 9 8 7 6 6 6 6 6 6 6 7 6 6 6 5 5 7 8 10 9 7 6 4 3 4 9 10 10 8 8 9 7
8 8 9 8 7 7 9 10 8 9 9 9 8 8 7 6 5 5 5 5 5 5 5 5 5 4 4 5 9 9 9 9 6 4 6 8 9 9 8 10 11 8 6
8 8 9 8 7 6 7 8 9 9 10 10 8 7 8 7 6 5 4 4 4 5 5 5 5 4 3 3 3 4 5 7 6 5 6 9 10 9 8 8 7 6 5
7 8 8 8 7 7 7 7 9 11 11 10 8 7 7 7 6 6 5 3 2 3 6 5 5 6 4 1 3 4 3 3 3 4 4 5 5 6 5 5 6 6 6
8 8 8 7 7 8 8 7 8 10 11 9 8 6 6 6 6 6 6 10 7 7 7 7 7 4 5 6 7 8 8 7 7 6 5 4 4 4 4 4 5 5 5
Wind_Direction
188 177 175 174 168 169 169 169 168 173 164 156 160 170 197 209 214 210 207 205 205 203 197 201 207 201 202 210 210 206 222 234 207 197 306 306 267 240 235 219 209 214 217
181 179 177 175 174 175 176 175 174 174 172 171 169 173 180 205 216 225 203 203 204 206 209 203 204 204 208 221 218 206 206 232 188 163 168 315 323 300 250 230 223 222 215
188 185 182 182 176 179 179 181 179 173 173 169 155 148 112 327 262 241 220 222 219 224 220 211 208 209 206 218 222 210 202 219 227 181 166 182 235 289 308 267 239 226 208
184 184 185 184 182 184 180 170 170 171 172 167 165 166 179 206 225 217 219 235 230 231 229 221 214 213 212 218 225 215 208 199 223 226 208 197 182 192 290 313 301 267 222
178 181 188 189 184 178 173 165 163 175 174 172 177 183 198 211 219 212 221 248 256 248 244 233 222 222 219 220 222 215 213 208 211 213 211 218 215 203 205 269 299 315 272
176 175 173 169 165 163 163 159 164 178 179 177 181 187 196 206 212 214 219 249 260 262 261 247 233 229 226 229 225 216 214 217 218 218 209 201 207 210 199 229 252 268 282
171 166 163 165 162 160 164 166 172 179 183 184 186 189 191 194 203 211 220 238 255 265 266 261 245 234 228 224 217 216 222 218 218 219 219 213 221 212 197 210 240 256 277
164 165 170 170 167 168 168 169 174 181 183 189 193 188 185 191 205 211 211 224 233 250 263 269 264 252 231 223 210 212 225 224 225 233 229 224 226 213 200 200 203 257 279
163 165 166 163 162 166 168 170 173 175 178 187 185 181 184 189 198 206 203 219 249 263 290 294 289 277 241 219 198 208 224 220 228 249 256 253 251 232 220 205 195 200 240
163 159 153 154 154 155 149 156 161 168 168 173 178 182 188 191 188 177 174 186 263 5 22 6 2 4 37 77 113 128 164 130 290 278 279 274 281 276 263 217 215 201 206
156 152 153 155 151 147 148 153 158 154 155 162 163 155 159 156 151 146 163 131 66 55 48 38 45 48 52 57 73 75 90 110 67 7 346 302 312 341 334 291 157 168 173
148 145 144 141 140 141 144 149 152 155 157 152 142 135 123 116 112 105 99 96 73 58 61 62 60 52 52 60 68 68 63 73 66 46 45 23 38 41 30 58 71 101 153
139 133 134 136 137 138 138 140 142 143 134 128 124 117 113 110 105 92 87 90 84 70 70 76 76 62 60 68 67 70 65 64 62 58 55 43 55 48 42 55 56 53 63
137 138 137 136 137 136 138 141 134 132 126 119 118 117 119 115 109 100 88 86 89 86 83 78 78 76 71 70 70 71 71 67 60 54 49 48 56 54 49 53 49 63 69
144 146 142 140 140 137 134 133 130 128 124 116 114 116 112 106 99 91 80 75 78 81 82 75 69 70 74 71 75 76 77 69 60 52 49 55 62 60 55 58 50 60 67
149 148 146 145 145 144 141 136 130 126 119 117 117 111 105 100 94 90 82 78 74 74 77 73 79 74 72 69 74 84 76 70 63 57 50 53 52 58 59 62 62 65 76
150 151 151 151 150 149 144 138 131 123 117 116 113 109 108 104 99 98 87 81 76 75 76 73 76 76 73 74 75 77 80 72 62 54 50 55 51 53 57 56 54 52 52
147 150 147 144 142 137 132 126 121 123 121 119 116 113 110 108 102 98 95 87 82 82 81 77 76 77 75 77 80 77 74 69 60 55 54 56 48 53 62 65 59 50 44
145 145 144 139 136 136 133 126 124 127 124 123 120 118 120 117 112 108 103 95 93 87 81 80 79 79 68 74 84 85 81 74 61 55 51 55 59 54 64 68 63 50 36
127 126 125 124 131 140 136 130 132 131 129 127 121 116 119 120 119 117 108 98 97 96 91 81 76 82 76 71 80 85 89 81 69 54 45 49 60 58 62 66 66 56 29
122 120 122 127 136 140 134 130 130 133 130 120 114 111 111 113 116 111 108 108 104 99 91 86 73 68 69 69 75 81 87 94 84 67 49 40 53 58 58 61 63 62 61
119 119 122 122 124 127 129 129 129 130 124 119 116 110 106 111 112 109 109 111 113 104 96 91 77 56 53 63 74 78 81 91 95 83 60 49 55 55 52 54 55 60 64
121 119 121 119 116 123 131 132 134 130 123 118 115 109 97 87 96 109 116 117 116 114 111 105 100 77 52 54 68 77 80 81 83 79 72 62 57 52 48 50 56 57 59
123 122 118 120 120 120 124 131 134 129 123 119 115 109 102 87 73 76 87 107 116 122 122 122 119 107 79 61 57 64 75 74 72 66 56 55 56 55 47 42 43 47 58
123 125 125 127 127 123 123 127 131 128 123 121 118 110 105 103 87 72 58 79 87 155 147 147 144 135 127 146 122 112 92 90 89 76 56 52 50 48 42 39 37 37 43
126 124 123 125 128 129 130 131 133 132 131 131 129 125 121 117 115 110 82 51 59 75 105 130 132 116 121 121 107 103 102 97 95 84 72 65 65 67 63 57 43 36 35
Height
1532 1534 1537 1539 1541 1544 1546 1547 1548 1550 1551 1553 1554 1555 1556 1557 1557 1558 1558 1558 1558 1559 1559 1559 1559 1559 1560 1561 1562 1562 1563 1563 1564 1565 1564 1564 1565 1564 1564 1564 1564 1565 1565
1530 1533 1535 1537 1539 1541 1543 1545 1546 1548 1549 1551 1552 1553 1554 1555 1556 1556 1556 1556 1556 1555 1555 1555 1555 1556 1557 1558 1559 1559 1560 1560 1561 1562 1562 1562 1562 1561 1561 1561 1561 1561 1562
1526 1530 1532 1534 1537 1540 1541 1543 1545 1547 1548 1549 1550 1552 1552 1553 1553 1553 1553 1553 1553 1552 1553 1552 1552 1553 1554 1554 1555 1556 1556 1557 1558 1559 1560 1559 1558 1558 1558 1558 1558 1558 1558
1524 1528 1530 1533 1534 1537 1539 1541 1543 1545 1546 1547 1548 1549 1549 1549 1550 1551 1551 1550 1550 1549 1549 1549 1549 1549 1550 1550 1551 1552 1553 1553 1554 1555 1556 1557 1557 1557 1555 1555 1555 1555 1555
1521 1524 1527 1531 1533 1536 1538 1539 1541 1543 1544 1545 1546 1547 1547 1547 1548 1548 1548 1547 1547 1547 1546 1546 1545 1546 1546 1546 1547 1548 1548 1549 1550 1551 1552 1553 1553 1553 1553 1551 1552 1552 1552
1518 1521 1525 1529 1532 1534 1536 1538 1539 1540 1542 1543 1544 1544 1545 1546 1546 1546 1545 1545 1544 1544 1543 1543 1542 1542 1542 1542 1543 1544 1545 1545 1546 1547 1548 1548 1549 1549 1549 1548 1547 1547 1548
1516 1520 1524 1527 1529 1531 1534 1536 1537 1537 1539 1541 1542 1543 1543 1544 1544 1543 1543 1543 1542 1541 1540 1540 1539 1539 1539 1539 1540 1540 1540 1541 1542 1543 1543 1544 1544 1545 1545 1545 1544 1544 1544
1514 1518 1521 1524 1526 1529 1531 1533 1534 1536 1537 1539 1540 1541 1541 1542 1542 1542 1541 1540 1539 1539 1538 1537 1536 1536 1535 1536 1536 1536 1537 1538 1538 1539 1539 1540 1540 1541 1541 1541 1541 1540 1540
1513 1516 1520 1523 1525 1527 1529 1531 1533 1534 1535 1537 1538 1539 1540 1540 1540 1540 1539 1539 1538 1537 1536 1535 1535 1534 1534 1533 1533 1533 1534 1534 1535 1535 1536 1536 1537 1537 1537 1537 1538 1538 1537
1512 1515 1519 1522 1524 1527 1529 1531 1532 1533 1534 1536 1537 1538 1539 1539 1539 1538 1538 1537 1536 1536 1535 1534 1533 1533 1532 1531 1531 1531 1531 1531 1532 1532 1532 1533 1533 1533 1533 1533 1533 1534 1534
1511 1514 1517 1521 1524 1526 1528 1530 1532 1532 1533 1535 1536 1537 1537 1537 1537 1537 1536 1536 1535 1534 1533 1533 1532 1531 1530 1530 1530 1529 1529 1529 1529 1529 1529 1529 1529 1529 1529 1530 1529 1530 1530
1511 1514 1517 1521 1524 1526 1528 1530 1531 1532 1533 1534 1535 1536 1536 1536 1536 1535 1535 1534 1533 1533 1532 1532 1531 1530 1529 1529 1529 1528 1528 1528 1527 1527 1527 1527 1527 1526 1526 1526 1526 1526 1527
1512 1515 1518 1521 1523 1526 1527 1529 1530 1531 1532 1533 1534 1535 1535 1535 1535 1534 1533 1533 1532 1531 1531 1531 1530 1529 1529 1529 1528 1528 1528 1527 1526 1526 1526 1526 1525 1525 1524 1524 1524 1524 1525
1511 1514 1517 1520 1523 1525 1527 1529 1529 1530 1532 1533 1533 1534 1534 1534 1534 1533 1533 1532 1531 1531 1530 1530 1530 1530 1529 1529 1529 1528 1528 1527 1527 1526 1525 1525 1524 1524 1524 1523 1523 1523 1523
1511 1514 1516 1519 1522 1524 1526 1528 1529 1530 1531 1532 1533 1533 1533 1534 1533 1533 1532 1532 1531 1530 1530 1530 1530 1530 1530 1530 1529 1529 1528 1528 1527 1527 1526 1525 1525 1524 1524 1523 1523 1522 1522
1510 1513 1516 1518 1521 1523 1525 1526 1528 1530 1531 1532 1532 1533 1533 1533 1533 1532 1532 1531 1531 1531 1530 1530 1530 1530 1530 1531 1530 1530 1529 1529 1528 1528 1527 1526 1526 1525 1525 1524 1524 1523 1523
1509 1512 1515 1518 1520 1522 1524 1525 1527 1529 1530 1531 1532 1532 1532 1532 1532 1532 1532 1532 1531 1531 1531 1531 1531 1531 1531 1532 1532 1531 1531 1530 1530 1529 1528 1528 1527 1527 1526 1526 1525 1524 1524
1509 1512 1515 1517 1519 1521 1523 1525 1527 1528 1530 1531 1531 1532 1532 1532 1533 1533 1533 1532 1532 1532 1532 1532 1532 1532 1533 1534 1533 1533 1532 1532 1531 1531 1530 1530 1529 1529 1528 1527 1527 1526 1526
1508 1511 1514 1516 1518 1521 1522 1524 1525 1527 1529 1530 1531 1532 1532 1533 1533 1533 1533 1534 1534 1534 1534 1534 1534 1534 1535 1535 1535 1535 1534 1533 1533 1533 1533 1532 1532 1531 1531 1529 1528 1528 1528
1508 1511 1514 1516 1518 1520 1521 1523 1524 1526 1527 1529 1531 1532 1533 1533 1533 1534 1534 1535 1535 1535 1536 1536 1536 1537 1537 1537 1537 1537 1536 1535 1535 1535 1535 1535 1534 1534 1533 1532 1531 1531 1531
1508 1510 1513 1515 1517 1519 1521 1522 1523 1525 1527 1529 1530 1532 1533 1534 1534 1535 1535 1536 1537 1537 1538 1538 1538 1538 1539 1539 1539 1539 1538 1538 1537 1537 1537 1537 1537 1536 1536 1535 1534 1533 1533
1508 1510 1512 1514 1516 1518 1520 1521 1522 1524 1526 1528 1530 1532 1533 1534 1535 1535 1536 1537 1538 1538 1539 1539 1539 1540 1540 1540 1540 1541 1540 1540 1540 1539 1539 1539 1539 1539 1538 1537 1537 1536 1536
1507 1509 1511 1513 1516 1518 1519 1521 1522 1524 1526 1528 1529 1531 1533 1534 1535 1536 1536 1537 1538 1539 1539 1540 1540 1541 1541 1542 1542 1542 1542 1542 1542 1542 1542 1541 1541 1541 1540 1540 1539 1538 1538
1506 1508 1510 1512 1515 1517 1519 1520 1522 1523 1525 1527 1529 1530 1532 1534 1535 1536 1537 1538 1539 1539 1540 1540 1541 1542 1542 1543 1543 1544 1544 1544 1544 1544 1544 1544 1543 1543 1542 1542 1541 1540 1540
1506 1508 1510 1512 1514 1516 1518 1520 1521 1523 1525 1527 1529 1530 1532 1534 1535 1536 1537 1538 1539 1540 1541 1541 1542 1542 1543 1544 1545 1545 1546 1546 1546 1546 1546 1546 1545 1545 1544 1544 1543 1542 1541
1506 1508 1510 1512 1514 1516 1518 1519 1521 1523 1524 1526 1528 1530 1532 1533 1534 1536 1537 1538 1539 1540 1541 1542 1543 1544 1545 1545 1546 1547 1547 1547 1548 1548 1547 1547 1547 1546 1546 1545 1544 1544 1543